N0DZQ Weather Reports


time (UTC)temp
F
wind
direction
speed
knots
gust
knots
rain 1hr
in
rain 24hr
in
rain mn
in
humidity
%
barometer
mb
20260503014057 58 0 0.0 0.9 0.00 0.00 0.00 53 1011.1
20260503013557 58 0 0.0 0.0 0.00 0.00 0.00 52 1011.1
20260503013106 59 0 0.0 0.0 0.00 0.00 0.00 50 1011.0
20260503012600 59 0 0.0 0.0 0.00 0.00 0.00 50 1011.0
20260503012056 59 0 0.0 0.0 0.00 0.00 0.00 49 1011.0
20260503011605 60 0 0.0 0.0 0.00 0.00 0.00 50 1011.0
20260503011057 60 0 0.0 0.0 0.00 0.00 0.00 50 1011.0
20260503010556 60 0 0.0 0.0 0.00 0.00 0.00 49 1011.1
20260503010100 61 0 0.0 1.7 0.00 0.00 0.00 48 1011.1
20260503005558 61 0 0.0 3.5 0.00 0.00 0.00 47 1011.1
20260503005056 61 0 0.0 3.5 0.00 0.00 0.00 47 1011.0
20260503004601 61 0 0.9 3.5 0.00 0.00 0.00 48 1011.1
20260503004057 62 319 0.0 3.5 0.00 0.00 0.00 44 1011.1
20260503003557 62 0 0.0 2.6 0.00 0.00 0.00 45 1011.2
20260503003109 62 0 0.0 2.6 0.00 0.00 0.00 46 1011.2
20260503002601 62 297 0.0 2.6 0.00 0.00 0.00 43 1011.2
20260503002057 62 0 0.9 4.3 0.00 0.00 0.00 43 1011.2
20260503001609 62 0 0.9 4.3 0.00 0.00 0.00 44 1011.3
20260503001100 62 290 0.0 2.6 0.00 0.00 0.00 44 1011.3
20260503000556 62 101 0.0 0.0 0.00 0.00 0.00 46 1011.4
20260503000112 62 0 0.0 0.9 0.00 0.00 0.00 44 1011.4
20260502235600 62 0 0.0 1.7 0.00 0.00 0.00 42 1011.5
20260502235100 63 0 0.0 1.7 0.00 0.00 0.00 43 1011.5
20260502234603 63 0 0.0 0.9 0.00 0.00 0.00 44 1011.5
20260502234100 63 0 0.0 0.9 0.00 0.00 0.00 40 1011.6
20260502233601 63 0 0.0 3.5 0.00 0.00 0.00 41 1011.6
20260502233102 63 0 0.0 3.5 0.00 0.00 0.00 42 1011.6
20260502232557 63 285 0.9 2.6 0.00 0.00 0.00 44 1011.9
20260502232057 63 0 0.0 2.6 0.00 0.00 0.00 42 1012.0
20260502231621 63 336 0.0 2.6 0.00 0.00 0.00 40 1012.0
20260502231057 63 289 0.0 3.5 0.00 0.00 0.00 43 1012.1
20260502230601 62 233 1.7 3.5 0.00 0.00 0.00 41 1012.3
20260502230121 63 160 0.0 3.5 0.00 0.00 0.00 43 1012.2
20260502225600 63 276 0.0 2.6 0.00 0.00 0.00 40 1012.3
20260502225100 63 0 0.9 2.6 0.00 0.00 0.00 39 1012.2
20260502224610 63 0 0.0 3.5 0.00 0.00 0.00 40 1012.3
20260502224101 63 0 0.9 6.1 0.00 0.00 0.00 41 1012.2
20260502223601 63 0 0.0 6.1 0.00 0.00 0.00 40 1012.3
20260502223111 63 312 0.9 2.6 0.00 0.00 0.00 42 1012.3
20260502222558 63 208 0.0 2.6 0.00 0.00 0.00 42 1012.4
20260502222101 64 13 0.0 2.6 0.00 0.00 0.00 39 1012.4
20260502221558 64 240 0.9 2.6 0.00 0.00 0.00 38 1012.3
20260502221100 64 0 0.9 4.3 0.00 0.00 0.00 41 1012.4
20260502220601 64 122 0.9 4.3 0.00 0.00 0.00 38 1012.5
20260502220108 64 309 1.7 4.3 0.00 0.00 0.00 38 1012.5
20260502215601 64 336 0.0 2.6 0.00 0.00 0.00 39 1012.7
20260502215058 64 0 0.0 2.6 0.00 0.00 0.00 38 1012.7
20260502214606 64 0 0.0 2.6 0.00 0.00 0.00 40 1012.9
20260502214108 64 313 0.9 4.3 0.00 0.00 0.00 39 1013.0
20260502213601 64 63 0.0 5.2 0.00 0.00 0.00 39 1013.1
20260502213100 64 217 1.7 6.1 0.00 0.00 0.00 39 1013.1
20260502212601 64 266 2.6 6.1 0.00 0.00 0.00 38 1013.2
20260502212101 65 309 2.6 6.1 0.00 0.00 0.00 39 1013.3
20260502211559 65 218 1.7 6.1 0.00 0.00 0.00 36 1013.3
20260502211100 64 287 0.0 8.7 0.00 0.00 0.00 39 1013.4
20260502210604 63 284 1.7 8.7 0.00 0.00 0.00 42 1013.4
20260502210100 64 304 2.6 8.7 0.00 0.00 0.00 36 1013.5
20260502205600 64 77 3.5 7.0 0.00 0.00 0.00 36 1013.7
20260502205057 64 288 1.7 7.8 0.00 0.00 0.00 35 1013.8
20260502204615 64 222 0.9 8.7 0.00 0.00 0.00 37 1013.8
20260502204057 63 0 2.6 8.7 0.00 0.00 0.00 35 1013.9
20260502203556 63 297 1.7 6.1 0.00 0.00 0.00 39 1014.0
20260502203100 62 5 1.7 7.8 0.00 0.00 0.00 37 1014.2
20260502202557 63 333 2.6 7.8 0.00 0.00 0.00 37 1014.3
20260502202057 64 291 1.7 4.3 0.00 0.00 0.00 39 1014.3
20260502201602 64 292 0.9 5.2 0.00 0.00 0.00 36 1014.4
20260502201057 64 0 1.7 5.2 0.00 0.00 0.00 38 1014.5
20260502200601 64 271 1.7 5.2 0.00 0.00 0.00 38 1014.6
20260502200059 63 125 1.7 4.3 0.00 0.00 0.00 39 1014.8
20260502195559 63 325 0.9 7.8 0.00 0.00 0.00 40 1014.9
20260502195100 62 0 1.7 7.8 0.00 0.00 0.00 36 1014.9
20260502194559 63 57 0.9 7.0 0.00 0.00 0.00 34 1014.9
20260502194100 63 236 0.9 5.2 0.00 0.00 0.00 38 1015.1
20260502193600 62 349 1.7 5.2 0.00 0.00 0.00 38 1015.1
20260502193100 62 347 0.9 5.2 0.00 0.00 0.00 37 1015.3
20260502192558 62 309 0.0 5.2 0.00 0.00 0.00 38 1015.2
20260502192058 62 245 1.7 5.2 0.00 0.00 0.00 39 1015.4
20260502191605 62 37 0.0 4.3 0.00 0.00 0.00 36 1015.5
20260502191100 62 212 0.9 9.6 0.00 0.00 0.00 37 1015.7
20260502190559 62 293 1.7 9.6 0.00 0.00 0.00 39 1015.7
20260502190100 61 311 2.6 9.6 0.00 0.00 0.00 39 1015.9
20260502185602 61 107 0.9 4.3 0.00 0.00 0.00 42 1016.0
20260502185057 61 118 0.9 5.2 0.00 0.00 0.00 38 1016.0
20260502184600 62 198 0.9 5.2 0.00 0.00 0.00 38 1016.1
20260502184057 61 333 0.9 5.2 0.00 0.00 0.00 39 1016.1
20260502183600 61 0 0.9 5.2 0.00 0.00 0.00 39 1016.1
20260502183059 61 299 0.9 7.0 0.00 0.00 0.00 42 1016.3
20260502182558 61 0 1.7 7.0 0.00 0.00 0.00 38 1016.3
20260502182057 61 112 0.9 6.1 0.00 0.00 0.00 43 1016.4
20260502181601 60 108 0.9 3.5 0.00 0.00 0.00 45 1016.3
20260502181100 60 309 0.9 6.1 0.00 0.00 0.00 40 1016.5
20260502180557 60 216 0.9 6.1 0.00 0.00 0.00 42 1016.7
20260502164100 57 319 0.9 7.0 0.00 0.00 0.00 40 1018.0
20260502163600 57 214 0.9 4.3 0.00 0.00 0.00 40 1018.1
20260502163103 57 5 0.9 4.3 0.00 0.00 0.00 40 1018.2
20260502162557 57 251 1.7 5.2 0.00 0.00 0.00 43 1018.2
20260502162058 56 295 0.9 5.2 0.00 0.00 0.00 43 1018.2
20260502161602 56 238 1.7 7.0 0.00 0.00 0.00 40 1018.3
20260502161056 56 297 1.7 7.0 0.00 0.00 0.00 40 1018.3
20260502160556 55 335 0.9 7.0 0.00 0.00 0.00 42 1018.4
20260502152058 54 294 0.9 7.0 0.00 0.00 0.00 47 1018.8
20260502151557 53 281 1.7 3.5 0.00 0.00 0.00 46 1018.8
20260502151059 53 288 1.7 7.0 0.00 0.00 0.00 45 1018.9
20260502150557 53 351 0.9 7.0 0.00 0.00 0.00 46 1019.0
20260502150113 53 271 1.7 6.1 0.00 0.00 0.00 44 1019.0
20260502140108 50 0 0.9 2.6 0.00 0.00 0.00 54 1019.3
20260502130559 45 0 0.0 3.5 0.00 0.00 0.00 66 1019.4
20260502130111 44 292 0.9 3.5 0.00 0.00 0.00 65 1019.3
20260502123556 41 0 0.0 0.9 0.00 0.00 0.00 74 1019.2
20260502123103 41 0 0.0 0.9 0.00 0.00 0.00 74 1019.2
20260502122601 40 0 0.0 2.6 0.00 0.00 0.00 75 1019.2
20260502122057 38 209 0.0 2.6 0.00 0.00 0.00 79 1019.2
20260502121600 37 0 0.0 0.9 0.00 0.00 0.00 81 1019.2
20260502121058 35 0 0.0 0.9 0.00 0.00 0.00 84 1019.2
20260502120559 34 0 0.0 0.0 0.00 0.00 0.00 86 1019.2
20260502115557 33 0 0.0 0.0 0.00 0.00 0.00 88 1019.1
20260502115101 33 0 0.0 0.0 0.00 0.00 0.00 88 1019.2
20260502114557 32 0 0.0 0.0 0.00 0.00 0.00 89 1019.2
20260502114100 32 0 0.0 0.0 0.00 0.00 0.00 90 1019.2
20260502113557 32 0 0.0 0.0 0.00 0.00 0.00 92 1019.1
20260502113100 32 0 0.0 0.0 0.00 0.00 0.00 92 1019.1
20260502112559 31 0 0.0 0.0 0.00 0.00 0.00 92 1019.1
20260502112101 31 0 0.0 0.0 0.00 0.00 0.00 93 1019.0
20260502111558 31 0 0.0 0.0 0.00 0.00 0.00 93 1019.0
20260502111100 31 0 0.0 0.0 0.00 0.00 0.00 93 1018.9
20260502110601 31 0 0.0 0.0 0.00 0.00 0.00 93 1019.0
20260502110100 31 0 0.0 0.0 0.00 0.00 0.00 93 1019.0
20260502105559 31 0 0.0 0.0 0.00 0.00 0.00 93 1019.1
20260502105057 31 0 0.0 0.0 0.00 0.00 0.00 93 1019.0
20260502104558 31 0 0.0 0.0 0.00 0.00 0.00 94 1019.1
20260502104057 31 0 0.0 0.0 0.00 0.00 0.00 94 1019.0
20260502103559 30 0 0.0 0.0 0.00 0.00 0.00 94 1019.1
20260502103058 30 0 0.0 0.0 0.00 0.00 0.00 93 1019.0
20260502102558 30 0 0.0 0.0 0.00 0.00 0.00 93 1019.0
20260502102057 30 0 0.0 0.0 0.00 0.00 0.00 93 1019.0
20260502101605 30 0 0.0 0.0 0.00 0.00 0.00 92 1018.9
20260502101058 30 0 0.0 0.0 0.00 0.00 0.00 92 1018.9
20260502100600 30 0 0.0 0.0 0.00 0.00 0.00 92 1019.0
20260502091059 30 0 0.0 0.0 0.00 0.00 0.00 90 1018.7
20260502090557 30 0 0.0 0.0 0.00 0.00 0.00 90 1018.8
20260502080106 30 0 0.0 0.0 0.00 0.00 0.00 88 1018.9
20260502071100 32 0 0.0 0.0 0.00 0.00 0.00 89 1019.2
20260502070602 32 0 0.0 0.0 0.00 0.00 0.00 89 1019.1
20260502070100 32 0 0.0 0.0 0.00 0.00 0.00 88 1019.3
20260502065601 32 0 0.0 0.0 0.00 0.00 0.00 88 1019.2
20260502065100 32 0 0.0 0.0 0.00 0.00 0.00 88 1019.3
20260502064600 32 0 0.0 0.0 0.00 0.00 0.00 87 1019.3
20260502064100 32 0 0.0 0.0 0.00 0.00 0.00 87 1019.3
20260502063558 33 0 0.0 0.0 0.00 0.00 0.00 87 1019.2
20260502063127 33 0 0.0 0.0 0.00 0.00 0.00 87 1019.3
20260502062557 33 0 0.0 0.0 0.00 0.00 0.00 87 1019.3
20260502062057 33 0 0.0 0.0 0.00 0.00 0.00 87 1019.3
20260502061559 33 0 0.0 0.0 0.00 0.00 0.00 87 1019.3
20260502061059 33 0 0.0 0.0 0.00 0.00 0.00 88 1019.3
20260502060557 33 0 0.0 0.0 0.00 0.00 0.00 88 1019.3
20260502055559 33 0 0.0 0.0 0.00 0.00 0.00 87 1019.4
20260502055059 33 0 0.0 0.0 0.00 0.00 0.00 88 1019.4
20260502054607 33 0 0.0 0.0 0.00 0.00 0.00 88 1019.4
20260502054057 33 0 0.0 0.0 0.00 0.00 0.00 88 1019.4
20260502053557 33 0 0.0 0.0 0.00 0.00 0.00 87 1019.4
20260502053105 33 0 0.0 0.0 0.00 0.00 0.00 87 1019.4
20260502052558 33 0 0.0 0.0 0.00 0.00 0.00 86 1019.4
20260502052101 33 0 0.0 0.0 0.00 0.00 0.00 85 1019.5
20260502051558 33 0 0.0 0.0 0.00 0.00 0.00 85 1019.4
20260502051058 33 0 0.0 0.0 0.00 0.00 0.00 85 1019.4
20260502050557 33 0 0.0 0.0 0.00 0.00 0.00 85 1019.3
20260502050057 33 0 0.0 0.0 0.00 0.00 0.00 85 1019.2
20260502045600 33 0 0.0 0.0 0.00 0.00 0.00 85 1019.3
20260502045058 33 0 0.0 0.0 0.00 0.00 0.00 85 1019.3
20260502044608 34 0 0.0 0.0 0.00 0.00 0.00 84 1019.3
20260502044059 34 0 0.0 0.0 0.00 0.00 0.00 83 1019.2
20260502043556 34 0 0.0 0.0 0.00 0.00 0.00 81 1019.3
20260502043101 34 0 0.0 0.0 0.00 0.00 0.00 81 1019.2
20260502042600 35 0 0.0 0.0 0.00 0.00 0.00 82 1019.3
20260502042056 35 0 0.0 0.0 0.00 0.00 0.00 83 1019.3
20260502041602 35 0 0.0 0.0 0.00 0.00 0.00 82 1019.4
20260502041057 35 0 0.0 0.0 0.00 0.00 0.00 81 1019.2
20260502040557 35 0 0.0 0.0 0.00 0.00 0.00 80 1019.4
20260502040104 36 0 0.0 0.0 0.00 0.00 0.00 80 1019.3
20260502035557 36 0 0.0 0.0 0.00 0.00 0.00 80 1019.4
20260502035058 36 0 0.0 0.0 0.00 0.00 0.00 80 1019.4
20260502034559 36 0 0.0 0.0 0.00 0.00 0.00 81 1019.5
20260502034057 36 0 0.0 0.0 0.00 0.00 0.00 80 1019.5
20260502033557 36 0 0.0 0.0 0.00 0.00 0.00 80 1019.4
20260502033102 36 0 0.0 0.0 0.00 0.00 0.00 81 1019.5
20260502032559 37 0 0.0 0.0 0.00 0.00 0.00 80 1019.5
20260502032057 37 0 0.0 0.0 0.00 0.00 0.00 78 1019.6
20260502031556 37 0 0.0 0.0 0.00 0.00 0.00 78 1019.4
20260502031057 38 0 0.0 0.0 0.00 0.00 0.00 77 1019.4
20260502030558 38 0 0.0 0.0 0.00 0.00 0.00 76 1019.4
20260502030101 38 0 0.0 0.0 0.00 0.00 0.00 76 1019.4
20260502025557 38 0 0.0 0.0 0.00 0.00 0.00 76 1019.3
20260502025101 38 0 0.0 0.0 0.00 0.00 0.00 74 1019.4
20260502024606 39 0 0.0 0.0 0.00 0.00 0.00 72 1019.4
20260502024058 39 0 0.0 0.0 0.00 0.00 0.00 72 1019.4
20260502023557 39 0 0.0 0.0 0.00 0.00 0.00 72 1019.5
20260502023100 39 0 0.0 0.0 0.00 0.00 0.00 70 1019.4
20260502022557 40 0 0.0 0.0 0.00 0.00 0.00 70 1019.4
20260502022057 40 0 0.0 0.0 0.00 0.00 0.00 66 1019.3
20260502021559 40 0 0.0 0.0 0.00 0.00 0.00 66 1019.3
20260502021057 40 0 0.0 0.0 0.00 0.00 0.00 68 1019.3
20260502020558 41 0 0.0 0.0 0.00 0.00 0.00 65 1019.2
20260502020058 41 0 0.0 0.0 0.00 0.00 0.00 66 1019.1
20260502015600 42 0 0.0 0.0 0.00 0.00 0.00 64 1019.1
20260502015058 42 0 0.0 0.0 0.00 0.00 0.00 62 1019.0
20260502014559 43 0 0.0 0.0 0.00 0.00 0.00 61 1018.9